contact: severine.martini@mio.osupytheas.fr, dominique.lefevre@mio.osupytheas.fr
Project:EMSO Ligure-ouest http://www.emso-fr.org/EMSO-France
Sensor Aquadopp, Serial 05974 
DOI : "https://doi.org/10.17882/97948" 
Title:EMSO Western Ligurian : Data Bathybot Aquadopp sensor - deploiement 2023-04-28
Datetime,Profondeur,Latitude,Longitude,X_East,Y_North,Z_up,Amplitude_X,Amplitude_Y,Amplitude_Z,Batterie,Sound_Speed,Heading,Pitch,Roll,Pressure,Temperature,Fluorescence,Speed,Direction
time,m,degree_north,degree_east,m.s-1,m.s-1,m.s-1,1,1,1,Volt,m.s-1,degree,degree,degree,dbar,degree_C,arbitrary units (a.u.),m.s-1,degree
2024-01-02T00:03:13,2420,42.8014,5.9826,-0.033,0.738,1.315,155.0,151.0,169.0,11.8,1504.7,271.6,-0.8,0.9,2485.683,13.28,766.0,0.739,357.4
2024-01-02T00:06:13,2420,42.8014,5.9826,0.653,0.033,3.688,155.0,151.0,152.0,11.8,1504.7,271.3,-0.8,0.9,2485.512,13.28,758.0,0.654,87.1
2024-01-02T00:09:13,2420,42.8014,5.9826,0.337,-0.205,3.607,155.0,152.0,152.0,11.8,1504.7,271.4,-0.8,0.9,2485.044,13.28,761.0,0.394,121.3
2024-01-02T00:12:13,2420,42.8014,5.9826,1.042,0.041,3.292,155.0,152.0,152.0,11.8,1504.7,271.3,-0.9,0.9,2485.37,13.28,776.0,1.043,87.7
2024-01-02T00:15:13,2420,42.8014,5.9826,0.869,0.264,3.079,154.0,151.0,152.0,11.8,1504.7,271.3,-0.8,0.9,2485.428,13.28,767.0,0.908,73.1
2024-01-02T00:18:13,2420,42.8014,5.9826,0.939,0.047,3.418,155.0,151.0,152.0,11.8,1504.7,271.3,-0.9,0.9,2485.301,13.28,780.0,0.94,87.1
2024-01-02T00:21:12,2420,42.8014,5.9826,0.391,0.042,3.97,155.0,151.0,152.0,11.8,1504.7,271.4,-0.8,0.9,2485.307,13.28,767.0,0.393,83.9
2024-01-02T00:24:12,2420,42.8014,5.9826,0.816,-0.199,3.105,155.0,152.0,152.0,11.8,1504.7,271.5,-0.8,0.9,2485.364,13.28,773.0,0.84,103.7
2024-01-02T00:27:13,2420,42.8014,5.9826,0.754,0.278,3.176,155.0,151.0,152.0,11.8,1504.7,271.3,-0.9,0.9,2485.406,13.28,761.0,0.804,69.8
2024-01-02T00:30:13,2420,42.8014,5.9826,0.968,-0.221,2.965,155.0,152.0,152.0,11.8,1504.7,271.3,-0.8,0.9,2485.352,13.28,772.0,0.993,102.9
2024-01-02T00:33:13,2420,42.8014,5.9826,0.46,0.043,3.931,155.0,151.0,152.0,11.8,1504.7,271.5,-0.8,0.9,2485.344,13.28,765.0,0.462,84.7
2024-01-02T00:36:13,2420,42.8014,5.9826,0.102,0.789,2.986,155.0,152.0,152.0,11.8,1504.7,271.4,-0.8,0.9,2485.516,13.28,1507.0,0.796,7.4
2024-01-02T00:39:13,2420,42.8014,5.9826,0.758,0.044,3.673,155.0,151.0,152.0,11.8,1504.7,271.3,-0.8,0.9,2485.47,13.28,761.0,0.759,86.7
2024-01-02T00:42:12,2420,42.8014,5.9826,0.522,0.259,2.51,155.0,151.0,152.0,11.8,1504.7,271.4,-0.9,0.9,2485.267,13.28,769.0,0.583,63.6
2024-01-02T00:45:13,2420,42.8014,5.9826,0.917,0.039,3.467,155.0,151.0,152.0,11.8,1504.7,271.3,-0.9,0.9,2485.504,13.28,772.0,0.918,87.6
2024-01-02T00:48:12,2420,42.8014,5.9826,0.666,0.041,3.697,155.0,151.0,152.0,11.8,1504.7,271.4,-0.8,0.9,2485.633,13.28,766.0,0.667,86.5
2024-01-02T00:51:13,2420,42.8014,5.9826,0.942,0.024,3.431,155.0,151.0,152.0,11.8,1504.7,271.5,-0.8,0.9,2485.257,13.28,774.0,0.942,88.5
2024-01-02T00:54:13,2420,42.8014,5.9826,0.418,0.04,3.97,155.0,151.0,152.0,11.8,1504.7,271.5,-0.8,0.9,2485.378,13.28,771.0,0.42,84.5
2024-01-02T00:57:13,2420,42.8014,5.9826,0.472,0.287,3.496,155.0,152.0,152.0,11.8,1504.7,271.3,-0.8,0.9,2485.362,13.28,767.0,0.552,58.7
2024-01-02T01:03:13,2420,42.8014,5.9826,0.741,0.045,3.585,155.0,151.0,152.0,11.7,1504.7,271.4,-0.8,0.9,2485.067,13.28,768.0,0.742,86.5
2024-01-02T01:06:13,2420,42.8014,5.9826,0.578,0.258,2.459,155.0,151.0,152.0,11.8,1504.7,271.4,-0.8,0.9,2485.225,13.28,782.0,0.633,65.9
2024-01-02T01:09:13,2420,42.8014,5.9826,0.916,0.023,3.481,155.0,152.0,152.0,11.7,1504.7,271.5,-0.8,0.9,2485.189,13.28,766.0,0.916,88.6
2024-01-02T01:12:13,2420,42.8014,5.9826,0.818,0.505,2.671,155.0,151.0,152.0,11.8,1504.7,271.3,-0.8,0.9,2485.657,13.28,758.0,0.961,58.3
2024-01-02T01:15:13,2420,42.8014,5.9826,0.772,-0.203,3.175,155.0,151.0,152.0,11.8,1504.7,271.5,-0.9,0.8,2485.39,13.28,771.0,0.798,104.7
2024-01-02T01:18:13,2420,42.8014,5.9826,1.051,0.025,3.308,155.0,151.0,152.0,11.8,1504.7,271.4,-0.8,0.9,2485.213,13.28,768.0,1.051,88.6
2024-01-02T01:21:13,2420,42.8014,5.9826,0.403,0.304,3.532,155.0,151.0,152.0,11.8,1504.7,271.4,-0.8,0.9,2485.436,13.28,775.0,0.505,53.0
2024-01-02T01:24:13,2420,42.8014,5.9826,0.546,0.066,3.818,155.0,152.0,152.0,11.8,1504.7,271.3,-0.9,0.9,2485.741,13.28,768.0,0.55,83.1
2024-01-02T01:27:13,2420,42.8014,5.9826,0.675,0.296,3.244,155.0,152.0,152.0,11.8,1504.7,271.3,-0.8,0.9,2485.39,13.28,780.0,0.737,66.3
2024-01-02T01:30:12,2420,42.8014,5.9826,0.782,0.286,3.144,155.0,151.0,152.0,11.8,1504.7,271.4,-0.8,0.9,2485.267,13.28,777.0,0.833,69.9
2024-01-02T01:33:13,2420,42.8014,5.9826,0.589,-0.445,2.92,155.0,152.0,152.0,11.8,1504.7,271.3,-0.8,0.9,2484.956,13.28,765.0,0.738,127.1
2024-01-02T01:36:13,2420,42.8014,5.9826,0.34,0.02,2.282,155.0,151.0,152.0,11.8,1504.7,271.3,-0.9,0.9,2485.191,13.28,775.0,0.341,86.6
2024-01-02T01:39:13,2420,42.8014,5.9826,0.524,-0.437,2.95,155.0,151.0,152.0,11.8,1504.7,271.3,-0.9,0.9,2485.089,13.28,773.0,0.682,129.8
2024-01-02T01:42:13,2420,42.8014,5.9826,0.807,-0.218,3.148,155.0,151.0,152.0,11.8,1504.7,271.5,-0.8,0.9,2485.257,13.28,769.0,0.836,105.1
2024-01-02T01:45:13,2420,42.8014,5.9826,0.641,0.033,3.713,155.0,151.0,152.0,11.8,1504.7,271.5,-0.8,0.9,2485.468,13.28,759.0,0.642,87.1
2024-01-02T01:48:12,2420,42.8014,5.9826,0.784,0.036,3.6,155.0,151.0,152.0,11.7,1504.7,271.4,-0.8,0.9,2485.151,13.28,776.0,0.785,87.4
2024-01-02T01:51:13,2420,42.8014,5.9826,0.942,0.023,3.447,155.0,151.0,152.0,11.8,1504.7,271.3,-0.8,0.9,2485.564,13.28,779.0,0.942,88.6
2024-01-02T01:54:12,2420,42.8014,5.9826,0.416,0.026,3.111,155.0,151.0,152.0,11.8,1504.7,271.4,-0.8,0.9,2485.412,13.28,761.0,0.417,86.4
2024-01-02T01:57:13,2420,42.8014,5.9826,0.634,0.04,3.758,155.0,151.0,152.0,11.8,1504.7,271.5,-0.8,0.9,2485.56,13.28,773.0,0.635,86.4
2024-01-02T02:03:13,2420,42.8014,5.9826,0.607,-0.206,3.299,155.0,151.0,152.0,11.8,1504.7,271.5,-0.8,0.9,2485.492,13.28,760.0,0.641,108.7
2024-01-02T02:06:13,2420,42.8014,5.9826,0.308,0.058,3.203,155.0,151.0,152.0,11.8,1504.7,271.3,-0.8,0.9,2485.47,13.28,758.0,0.313,79.3
2024-01-02T02:09:13,2420,42.8014,5.9826,0.626,0.032,2.867,155.0,151.0,152.0,11.8,1504.7,271.5,-0.8,0.9,2485.352,13.28,786.0,0.627,87.1
2024-01-02T02:12:13,2420,42.8014,5.9826,0.737,0.043,3.651,155.0,151.0,152.0,11.8,1504.7,271.3,-0.8,0.9,2485.378,13.28,761.0,0.738,86.7
2024-01-02T02:15:13,2420,42.8014,5.9826,0.535,-0.204,3.356,155.0,151.0,152.0,11.8,1504.7,271.3,-0.8,0.9,2485.309,13.28,766.0,0.572,110.9
2024-01-02T02:18:12,2420,42.8014,5.9826,0.757,0.05,3.578,155.0,151.0,152.0,11.8,1504.7,271.3,-0.9,0.9,2485.408,13.28,773.0,0.759,86.2
2024-01-02T02:21:13,2420,42.8014,5.9826,0.715,0.029,3.64,155.0,151.0,152.0,11.8,1504.7,271.5,-0.8,0.9,2485.52,13.28,764.0,0.715,87.7
2024-01-02T02:24:12,2420,42.8014,5.9826,0.532,0.061,3.821,155.0,151.0,152.0,11.8,1504.7,271.3,-0.8,0.9,2485.396,13.28,762.0,0.535,83.5
2024-01-02T02:27:13,2420,42.8014,5.9826,0.778,0.043,3.543,155.0,151.0,152.0,11.8,1504.7,271.3,-0.8,0.9,2485.253,13.28,766.0,0.779,86.8
2024-01-02T02:30:13,2420,42.8014,5.9826,0.478,0.287,3.469,155.0,152.0,152.0,11.8,1504.7,271.3,-0.8,0.9,2485.344,13.28,1025.0,0.557,59.0
2024-01-02T02:33:13,2420,42.8014,5.9826,0.742,0.032,3.649,155.0,151.0,152.0,11.8,1504.7,271.6,-0.8,0.9,2485.177,13.28,771.0,0.743,87.5
2024-01-02T02:36:12,2420,42.8014,5.9826,0.535,0.291,3.449,155.0,151.0,152.0,11.8,1504.7,271.5,-0.8,0.9,2484.892,13.28,777.0,0.609,61.5
2024-01-02T02:39:13,2420,42.8014,5.9826,0.501,-0.206,3.415,155.0,152.0,152.0,11.8,1504.7,271.3,-0.8,0.9,2485.514,13.28,763.0,0.542,112.3
2024-01-02T02:42:12,2420,42.8014,5.9826,0.603,0.056,3.744,155.0,151.0,152.0,11.7,1504.7,271.3,-0.8,0.9,2485.157,13.28,1757.0,0.606,84.7
2024-01-02T02:45:13,2420,42.8014,5.9826,0.964,0.036,3.377,155.0,151.0,152.0,11.7,1504.7,271.5,-0.8,0.9,2485.057,13.28,766.0,0.965,87.9
2024-01-02T02:48:13,2420,42.8014,5.9826,0.685,0.051,3.615,155.0,151.0,152.0,11.8,1504.7,271.4,-0.8,0.9,2485.332,13.28,769.0,0.687,85.7
2024-01-02T02:51:13,2420,42.8014,5.9826,0.537,-0.199,3.381,155.0,151.0,152.0,11.8,1504.7,271.4,-0.8,0.9,2485.348,13.28,768.0,0.573,110.3
2024-01-02T02:54:13,2420,42.8014,5.9826,0.943,0.005,3.429,155.0,151.0,152.0,11.8,1504.7,271.4,-0.8,0.9,2485.514,13.28,773.0,0.943,89.7
2024-01-02T02:57:13,2420,42.8014,5.9826,0.68,0.26,2.385,155.0,151.0,152.0,11.8,1504.7,271.3,-0.8,0.9,2485.432,13.28,765.0,0.728,69.1
2024-01-02T03:03:13,2420,42.8014,5.9826,1.092,0.005,3.23,155.0,151.0,152.0,11.7,1504.7,271.8,-0.8,0.9,2485.332,13.28,772.0,1.092,89.7
2024-01-02T03:06:12,2420,42.8014,5.9826,1.062,0.022,3.337,155.0,151.0,152.0,11.8,1504.7,272.0,-0.8,0.9,2485.452,13.28,767.0,1.062,88.8
2024-01-02T03:09:13,2420,42.8014,5.9826,0.959,-0.226,2.999,155.0,151.0,152.0,11.8,1504.7,271.9,-0.8,0.9,2485.446,13.28,773.0,0.985,103.3
2024-01-02T03:12:13,2420,42.8014,5.9826,1.097,0.034,3.255,155.0,151.0,152.0,11.8,1504.7,272.0,-0.9,0.9,2485.354,13.28,768.0,1.097,88.2
2024-01-02T03:15:13,2420,42.8014,5.9826,0.544,0.246,2.468,155.0,151.0,152.0,11.7,1504.7,272.0,-0.9,0.9,2485.675,13.28,767.0,0.597,65.7
2024-01-02T03:18:13,2420,42.8014,5.9826,0.996,-0.002,3.309,155.0,151.0,152.0,11.8,1504.7,272.1,-0.8,0.9,2485.49,13.28,762.0,0.996,90.1
2024-01-02T03:21:13,2420,42.8014,5.9826,1.082,0.023,3.27,155.0,151.0,152.0,11.8,1504.7,272.0,-0.8,0.9,2485.809,13.28,782.0,1.082,88.8
2024-01-02T03:24:13,2420,42.8014,5.9826,0.921,0.05,3.427,155.0,151.0,152.0,11.8,1504.7,272.1,-0.8,0.9,2485.902,13.28,766.0,0.922,86.9
2024-01-02T03:27:13,2420,42.8014,5.9826,0.839,0.512,2.658,155.0,151.0,152.0,11.8,1504.7,272.0,-0.8,0.9,2485.195,13.28,771.0,0.983,58.6
2024-01-02T03:30:13,2420,42.8014,5.9826,0.975,-0.001,3.382,155.0,152.0,152.0,11.8,1504.7,272.0,-0.9,0.9,2485.065,13.28,775.0,0.975,90.1
2024-01-02T03:33:13,2420,42.8014,5.9826,1.067,0.006,3.238,155.0,151.0,152.0,11.8,1504.7,272.0,-0.9,0.9,2485.585,13.28,769.0,1.067,89.7
2024-01-02T03:36:12,2420,42.8014,5.9826,0.994,0.025,3.32,155.0,152.0,152.0,11.8,1504.7,272.1,-0.8,0.9,2485.053,13.28,771.0,0.994,88.6
2024-01-02T03:39:13,2420,42.8014,5.9826,0.818,-0.102,3.258,155.0,152.0,152.0,11.8,1504.7,272.1,-0.8,0.9,2485.514,13.28,772.0,0.824,97.1
2024-01-02T03:42:13,2420,42.8014,5.9826,1.109,0.017,3.202,155.0,151.0,152.0,11.8,1504.7,272.0,-0.8,0.9,2485.522,13.28,762.0,1.109,89.1
2024-01-02T03:45:13,2420,42.8014,5.9826,1.1,0.009,3.225,155.0,151.0,152.0,11.8,1504.7,272.0,-0.9,0.9,2485.225,13.28,771.0,1.1,89.5
2024-01-02T03:48:13,2420,42.8014,5.9826,1.025,-0.232,2.809,155.0,151.0,152.0,11.8,1504.7,272.1,-0.8,0.9,2485.432,13.28,763.0,1.051,102.7
2024-01-02T03:51:13,2420,42.8014,5.9826,0.993,0.018,3.293,155.0,151.0,152.0,11.8,1504.7,272.0,-0.8,0.9,2485.287,13.28,778.0,0.993,89.0
2024-01-02T03:54:13,2420,42.8014,5.9826,0.956,0.247,2.97,155.0,151.0,152.0,11.8,1504.7,272.0,-0.8,0.9,2485.402,13.28,776.0,0.987,75.5
2024-01-02T03:57:12,2420,42.8014,5.9826,0.915,0.258,3.011,155.0,151.0,152.0,11.8,1504.7,272.0,-0.8,0.9,2485.107,13.28,751.0,0.951,74.3
2024-01-02T04:03:13,2420,42.8014,5.9826,0.773,0.015,3.526,155.0,151.0,152.0,11.8,1504.7,272.1,-0.8,0.8,2485.641,13.28,772.0,0.773,88.9
2024-01-02T04:06:13,2420,42.8014,5.9826,1.006,0.023,3.343,155.0,152.0,152.0,11.8,1504.7,272.0,-0.8,0.9,2485.161,13.28,762.0,1.006,88.7
2024-01-02T04:09:13,2420,42.8014,5.9826,1.218,0.017,3.114,155.0,151.0,152.0,11.8,1504.7,272.0,-0.8,0.9,2484.958,13.28,765.0,1.218,89.2
2024-01-02T04:12:13,2420,42.8014,5.9826,1.127,0.008,3.158,155.0,151.0,152.0,11.8,1504.7,272.0,-0.8,0.9,2485.374,13.28,779.0,1.127,89.6
2024-01-02T04:15:12,2420,42.8014,5.9826,1.063,-0.006,3.277,155.0,152.0,152.0,11.8,1504.7,272.0,-0.8,0.9,2485.466,13.28,771.0,1.063,90.3
2024-01-02T04:18:13,2420,42.8014,5.9826,0.974,0.013,3.373,155.0,151.0,152.0,11.8,1504.7,272.0,-0.9,0.9,2485.38,13.28,777.0,0.974,89.2
2024-01-02T04:21:13,2420,42.8014,5.9826,0.929,0.018,3.362,155.0,152.0,152.0,11.8,1504.7,272.1,-0.8,0.9,2485.02,13.28,757.0,0.929,88.9
2024-01-02T04:24:13,2420,42.8014,5.9826,1.019,0.01,3.238,155.0,152.0,152.0,11.8,1504.7,272.1,-0.8,0.9,2485.448,13.28,778.0,1.019,89.4
2024-01-02T04:27:13,2420,42.8014,5.9826,0.976,0.034,3.3,155.0,152.0,152.0,11.8,1504.7,272.0,-0.8,0.9,2485.715,13.28,771.0,0.977,88.0
2024-01-02T04:30:13,2420,42.8014,5.9826,1.003,0.014,3.299,155.0,152.0,152.0,11.8,1504.7,272.0,-0.8,0.9,2485.185,13.28,779.0,1.003,89.2
2024-01-02T04:33:12,2420,42.8014,5.9826,0.875,0.012,3.414,155.0,152.0,152.0,11.8,1504.7,272.0,-0.8,0.9,2485.044,13.28,768.0,0.875,89.2
2024-01-02T04:36:13,2420,42.8014,5.9826,1.052,0.022,3.232,155.0,151.0,152.0,11.8,1504.7,272.1,-0.8,0.9,2485.619,13.28,773.0,1.052,88.8
2024-01-02T04:39:13,2420,42.8014,5.9826,1.057,0.019,3.282,155.0,151.0,152.0,11.8,1504.7,272.0,-0.8,0.9,2485.352,13.28,773.0,1.057,89.0
2024-01-02T04:42:13,2420,42.8014,5.9826,1.156,0.0,3.135,155.0,151.0,152.0,11.8,1504.7,272.0,-0.9,0.9,2485.251,13.28,771.0,1.156,90.0
2024-01-02T04:45:13,2420,42.8014,5.9826,0.957,0.018,3.326,155.0,152.0,152.0,11.8,1504.7,272.1,-0.8,0.8,2485.352,13.28,773.0,0.957,88.9
2024-01-02T04:48:13,2420,42.8014,5.9826,0.975,0.063,3.257,155.0,151.0,152.0,11.8,1504.7,272.0,-0.8,0.9,2484.904,13.28,760.0,0.977,86.3
2024-01-02T04:51:13,2420,42.8014,5.9826,1.052,0.0,3.196,155.0,151.0,152.0,11.7,1504.7,272.0,-0.8,0.9,2485.386,13.28,766.0,1.052,90.0
2024-01-02T04:54:13,2420,42.8014,5.9826,0.974,0.007,3.35,155.0,151.0,152.0,11.8,1504.7,271.9,-0.8,0.9,2485.815,13.28,762.0,0.974,89.6
2024-01-02T04:57:13,2420,42.8014,5.9826,1.029,0.007,3.263,155.0,152.0,152.0,11.8,1504.7,272.0,-0.8,0.9,2485.221,13.28,766.0,1.029,89.6
2024-01-02T05:03:12,2420,42.8014,5.9826,0.923,0.022,3.352,155.0,151.0,152.0,11.8,1504.7,272.0,-0.8,0.9,2485.127,13.28,779.0,0.923,88.6
2024-01-02T05:06:13,2420,42.8014,5.9826,0.945,0.252,2.985,155.0,151.0,152.0,11.8,1504.7,272.0,-0.8,0.9,2485.404,13.28,767.0,0.978,75.1
2024-01-02T05:09:13,2420,42.8014,5.9826,0.999,0.023,3.33,155.0,151.0,152.0,11.8,1504.7,271.9,-0.9,0.9,2485.639,13.28,761.0,0.999,88.7
2024-01-02T05:12:13,2420,42.8014,5.9826,0.95,0.033,3.351,155.0,151.0,152.0,11.8,1504.7,272.1,-0.8,0.9,2485.197,13.28,758.0,0.951,88.0
2024-01-02T05:15:13,2420,42.8014,5.9826,1.02,0.008,3.234,155.0,151.0,152.0,11.8,1504.7,272.0,-0.9,0.9,2485.478,13.28,748.0,1.02,89.6
2024-01-02T05:18:13,2420,42.8014,5.9826,1.083,0.022,3.23,155.0,151.0,152.0,11.8,1504.7,272.0,-0.8,0.9,2485.424,13.28,776.0,1.083,88.8
2024-01-02T05:21:13,2420,42.8014,5.9826,1.04,0.009,3.232,155.0,151.0,152.0,11.8,1504.7,272.0,-0.8,0.9,2485.372,13.28,768.0,1.04,89.5
2024-01-02T05:24:13,2420,42.8014,5.9826,0.792,0.025,3.515,155.0,151.0,152.0,11.8,1504.7,272.1,-0.8,0.9,2485.277,13.28,761.0,0.792,88.2
2024-01-02T05:27:13,2420,42.8014,5.9826,0.929,-0.224,2.996,155.0,152.0,152.0,11.8,1504.7,272.0,-0.8,0.9,2485.579,13.28,768.0,0.956,103.6
2024-01-02T05:30:12,2420,42.8014,5.9826,0.892,0.03,3.411,155.0,152.0,152.0,11.7,1504.7,272.0,-0.8,0.9,2485.41,13.28,760.0,0.892,88.1
2024-01-02T05:33:13,2420,42.8014,5.9826,0.969,0.001,3.306,155.0,151.0,152.0,11.8,1504.7,272.0,-0.8,0.9,2485.38,13.28,778.0,0.969,89.9
2024-01-02T05:36:13,2420,42.8014,5.9826,0.882,0.263,2.995,155.0,151.0,152.0,11.8,1504.7,272.1,-0.8,0.8,2485.125,13.28,775.0,0.92,73.4
2024-01-02T05:39:13,2420,42.8014,5.9826,0.888,0.284,3.03,155.0,151.0,152.0,11.8,1504.7,272.0,-0.8,0.9,2485.412,13.28,763.0,0.932,72.3
2024-01-02T05:42:13,2420,42.8014,5.9826,0.95,0.016,3.388,155.0,151.0,152.0,11.8,1504.7,272.1,-0.8,0.9,2485.723,13.28,766.0,0.95,89.0
2024-01-02T05:45:13,2420,42.8014,5.9826,0.82,0.26,3.108,155.0,151.0,152.0,11.8,1504.7,272.0,-0.8,0.9,2485.683,13.28,775.0,0.86,72.4
2024-01-02T05:48:12,2420,42.8014,5.9826,0.984,-0.006,3.321,155.0,152.0,152.0,11.8,1504.7,272.0,-0.8,0.9,2485.326,13.28,762.0,0.984,90.3
2024-01-02T05:51:13,2420,42.8014,5.9826,0.944,0.017,3.416,155.0,151.0,152.0,11.8,1504.7,272.0,-0.9,0.9,2485.229,13.28,774.0,0.944,89.0
2024-01-02T05:54:13,2420,42.8014,5.9826,0.855,0.038,3.479,155.0,151.0,152.0,11.8,1504.7,271.9,-0.8,0.9,2485.175,13.28,785.0,0.856,87.5
2024-01-02T05:57:13,2420,42.8014,5.9826,0.958,0.019,3.349,155.0,151.0,152.0,11.7,1504.7,272.0,-0.8,0.9,2485.404,13.28,769.0,0.958,88.9
2024-01-02T06:03:13,2420,42.8014,5.9826,0.758,0.067,3.471,155.0,151.0,152.0,11.8,1504.7,272.0,-0.8,0.9,2485.093,13.28,844.0,0.761,85.0
2024-01-02T06:06:12,2420,42.8014,5.9826,1.008,0.005,3.308,155.0,152.0,152.0,11.8,1504.7,272.1,-0.8,0.9,2485.611,13.28,761.0,1.008,89.7
2024-01-02T06:09:13,2420,42.8014,5.9826,0.914,0.047,3.333,155.0,151.0,152.0,11.8,1504.7,272.1,-0.8,0.9,2485.414,13.28,768.0,0.915,87.1
2024-01-02T06:12:13,2420,42.8014,5.9826,0.957,0.253,2.928,155.0,151.0,152.0,11.8,1504.7,271.9,-0.8,0.9,2485.386,13.28,775.0,0.99,75.2
2024-01-02T06:15:13,2420,42.8014,5.9826,0.952,0.01,3.33,155.0,152.0,152.0,11.8,1504.7,272.0,-0.8,0.9,2485.456,13.28,778.0,0.952,89.4
2024-01-02T06:18:13,2420,42.8014,5.9826,1.08,0.011,3.164,155.0,151.0,152.0,11.8,1504.7,272.0,-0.8,0.9,2485.492,13.28,761.0,1.08,89.4
2024-01-02T06:21:13,2420,42.8014,5.9826,0.75,0.032,3.594,155.0,151.0,152.0,11.8,1504.7,271.9,-0.8,0.9,2485.452,13.28,766.0,0.751,87.6
2024-01-02T06:24:13,2420,42.8014,5.9826,0.924,0.027,3.35,155.0,151.0,152.0,11.8,1504.7,272.0,-0.8,0.9,2485.261,13.28,783.0,0.924,88.3
2024-01-02T06:27:12,2420,42.8014,5.9826,1.0,0.02,3.296,155.0,151.0,152.0,11.8,1504.7,272.0,-0.8,0.9,2485.141,13.28,769.0,1.0,88.9
2024-01-02T06:30:13,2420,42.8014,5.9826,0.991,0.027,3.338,155.0,152.0,152.0,11.8,1504.7,272.0,-0.8,0.9,2485.249,13.28,767.0,0.991,88.4
2024-01-02T06:33:13,2420,42.8014,5.9826,1.035,0.015,3.279,155.0,151.0,152.0,11.8,1504.7,272.0,-0.8,0.9,2485.235,13.28,759.0,1.035,89.2
2024-01-02T06:36:13,2420,42.8014,5.9826,0.848,-0.208,3.0,155.0,151.0,152.0,11.8,1504.7,272.0,-0.8,0.9,2485.055,13.28,768.0,0.873,103.8
2024-01-02T06:39:13,2420,42.8014,5.9826,0.891,0.018,3.432,155.0,151.0,152.0,11.8,1504.7,272.0,-0.9,0.9,2485.245,13.28,768.0,0.891,88.8
2024-01-02T06:42:13,2420,42.8014,5.9826,1.022,0.023,3.243,155.0,152.0,152.0,11.8,1504.7,272.0,-0.8,0.9,2485.446,13.28,769.0,1.022,88.7
2024-01-02T06:45:12,2420,42.8014,5.9826,0.686,-0.216,3.204,155.0,151.0,152.0,11.8,1504.7,272.0,-0.8,0.9,2485.366,13.28,759.0,0.719,107.5
2024-01-02T06:48:13,2420,42.8014,5.9826,0.72,0.027,3.626,155.0,151.0,152.0,11.8,1504.7,272.0,-0.9,0.9,2485.125,13.28,771.0,0.72,87.9
2024-01-02T06:51:12,2420,42.8014,5.9826,0.813,0.017,3.47,155.0,151.0,152.0,11.8,1504.7,272.0,-0.9,0.9,2485.48,13.28,766.0,0.813,88.8
2024-01-02T06:54:13,2420,42.8014,5.9826,0.937,0.019,3.281,155.0,152.0,152.0,11.7,1504.7,272.0,-0.9,0.9,2485.237,13.28,767.0,0.937,88.8
2024-01-02T06:57:12,2420,42.8014,5.9826,0.966,0.027,3.316,155.0,151.0,152.0,11.8,1504.7,272.1,-0.8,0.8,2485.151,13.28,775.0,0.966,88.4
2024-01-02T07:03:13,2420,42.8014,5.9826,0.915,0.018,3.356,155.0,151.0,152.0,11.7,1504.7,272.0,-0.9,0.9,2485.235,13.28,778.0,0.915,88.9
2024-01-02T07:06:13,2420,42.8014,5.9826,0.999,0.011,3.236,155.0,152.0,152.0,11.7,1504.7,272.0,-0.8,0.9,2485.53,13.28,769.0,0.999,89.4
2024-01-02T07:09:12,2420,42.8014,5.9826,0.909,0.02,3.404,155.0,151.0,152.0,11.8,1504.7,272.1,-0.8,0.9,2485.189,13.28,755.0,0.909,88.7
2024-01-02T07:12:13,2420,42.8014,5.9826,0.996,0.019,3.285,155.0,151.0,152.0,11.8,1504.7,272.0,-0.8,0.9,2485.388,13.28,764.0,0.996,88.9
2024-01-02T07:15:12,2420,42.8014,5.9826,0.917,0.01,3.405,155.0,151.0,152.0,11.8,1504.7,272.0,-0.8,0.8,2485.307,13.28,768.0,0.917,89.4
2024-01-02T07:18:13,2420,42.8014,5.9826,0.96,0.012,3.343,155.0,151.0,152.0,11.8,1504.7,272.1,-0.8,0.8,2485.39,13.28,775.0,0.96,89.3
2024-01-02T07:21:13,2420,42.8014,5.9826,0.923,0.036,3.403,155.0,151.0,152.0,11.7,1504.7,272.0,-0.8,0.9,2485.384,13.28,768.0,0.924,87.8
2024-01-02T07:24:13,2420,42.8014,5.9826,0.763,-0.21,3.122,155.0,151.0,152.0,11.8,1504.7,272.0,-0.8,0.9,2485.309,13.28,768.0,0.791,105.4
2024-01-02T07:27:13,2420,42.8014,5.9826,0.841,-0.233,3.071,155.0,152.0,152.0,11.8,1504.7,272.1,-0.8,0.9,2485.442,13.28,767.0,0.873,105.5
2024-01-02T07:30:13,2420,42.8014,5.9826,1.027,0.014,3.309,155.0,151.0,152.0,11.8,1504.7,272.0,-0.8,0.9,2485.546,13.28,772.0,1.027,89.2
2024-01-02T07:33:13,2420,42.8014,5.9826,0.51,-0.454,2.934,155.0,151.0,152.0,11.8,1504.7,272.0,-0.8,0.9,2485.667,13.28,781.0,0.683,131.7
2024-01-02T07:36:12,2420,42.8014,5.9826,1.112,0.034,3.201,155.0,152.0,152.0,11.8,1504.7,272.0,-0.9,0.9,2485.432,13.28,771.0,1.112,88.3
2024-01-02T07:39:13,2420,42.8014,5.9826,1.058,0.001,3.216,155.0,152.0,152.0,11.8,1504.7,272.1,-0.8,0.9,2484.888,13.28,762.0,1.058,90.0
2024-01-02T07:42:13,2420,42.8014,5.9826,0.873,0.031,3.411,155.0,151.0,152.0,11.8,1504.7,272.0,-0.9,0.9,2485.227,13.28,771.0,0.874,88.0
2024-01-02T07:45:13,2420,42.8014,5.9826,0.911,0.026,3.439,155.0,151.0,152.0,11.8,1504.7,272.1,-0.8,0.9,2485.237,13.28,771.0,0.911,88.4
2024-01-02T07:48:13,2420,42.8014,5.9826,0.811,0.263,3.045,155.0,151.0,152.0,11.8,1504.7,272.0,-0.9,0.8,2485.32,13.28,760.0,0.853,72.0
2024-01-02T07:51:13,2420,42.8014,5.9826,0.66,0.275,3.241,155.0,151.0,152.0,11.8,1504.7,271.9,-0.9,0.9,2485.358,13.28,777.0,0.715,67.4
2024-01-02T07:54:13,2420,42.8014,5.9826,0.865,0.03,3.471,155.0,151.0,152.0,11.8,1504.7,272.0,-0.8,0.9,2485.442,13.28,774.0,0.866,88.0
2024-01-02T07:57:12,2420,42.8014,5.9826,1.038,-0.005,3.304,155.0,151.0,152.0,11.8,1504.7,272.1,-0.8,0.9,2485.352,13.28,824.0,1.038,90.3
2024-01-02T08:03:13,2420,42.8014,5.9826,0.762,0.036,3.562,155.0,152.0,152.0,11.8,1504.7,272.0,-0.8,0.9,2485.542,13.28,782.0,0.763,87.3
2024-01-02T08:06:13,2420,42.8014,5.9826,0.943,0.031,3.394,155.0,151.0,152.0,11.8,1504.7,272.1,-0.8,0.9,2485.155,13.28,773.0,0.944,88.1
2024-01-02T08:09:13,2420,42.8014,5.9826,0.995,-0.001,3.315,155.0,151.0,152.0,11.8,1504.7,272.0,-0.8,0.9,2485.181,13.28,760.0,0.995,90.1
2024-01-02T08:12:12,2420,42.8014,5.9826,0.748,0.25,3.145,155.0,151.0,152.0,11.8,1504.7,272.0,-0.8,0.9,2485.376,13.28,778.0,0.789,71.5
2024-01-02T08:15:13,2420,42.8014,5.9826,0.984,0.021,3.357,155.0,151.0,152.0,11.8,1504.7,272.1,-0.8,0.9,2486.04,13.28,769.0,0.984,88.8
2024-01-02T08:18:13,2420,42.8014,5.9826,0.82,0.021,3.534,155.0,152.0,152.0,11.8,1504.7,272.1,-0.8,0.9,2485.5,13.28,769.0,0.82,88.5
2024-01-02T08:21:13,2420,42.8014,5.9826,0.85,0.031,3.486,155.0,151.0,152.0,11.8,1504.7,272.1,-0.8,0.9,2485.249,13.28,772.0,0.851,87.9
2024-01-02T08:24:13,2420,42.8014,5.9826,0.891,0.022,3.453,155.0,151.0,152.0,11.7,1504.7,272.1,-0.8,0.9,2485.414,13.28,759.0,0.891,88.6
2024-01-02T08:27:13,2420,42.8014,5.9826,0.804,0.027,3.545,155.0,151.0,152.0,11.8,1504.7,272.0,-0.8,0.9,2485.37,13.28,780.0,0.804,88.1
2024-01-02T08:30:13,2420,42.8014,5.9826,1.075,0.007,3.271,155.0,152.0,152.0,11.8,1504.7,272.0,-0.8,0.9,2485.52,13.28,771.0,1.075,89.6
2024-01-02T08:33:13,2420,42.8014,5.9826,0.93,0.041,3.373,155.0,151.0,152.0,11.8,1504.7,272.0,-0.8,0.9,2485.223,13.28,764.0,0.931,87.5
2024-01-02T08:36:13,2420,42.8014,5.9826,0.848,-0.227,3.024,155.0,151.0,152.0,11.8,1504.7,272.0,-0.8,0.9,2485.566,13.28,750.0,0.878,105.0
2024-01-02T08:39:13,2420,42.8014,5.9826,0.858,0.019,3.459,155.0,151.0,152.0,11.8,1504.7,272.0,-0.8,0.9,2485.4,13.28,774.0,0.858,88.7
2024-01-02T08:42:13,2420,42.8014,5.9826,1.058,0.02,3.273,155.0,151.0,152.0,11.8,1504.7,272.0,-0.8,0.9,2485.336,13.28,782.0,1.058,88.9
2024-01-02T08:45:13,2420,42.8014,5.9826,0.871,-0.221,2.99,155.0,152.0,152.0,11.8,1504.7,272.0,-0.8,0.9,2485.45,13.28,769.0,0.899,104.2
2024-01-02T08:48:13,2420,42.8014,5.9826,0.916,0.022,3.387,155.0,151.0,152.0,11.8,1504.7,272.0,-0.8,0.9,2485.572,13.28,763.0,0.916,88.6
2024-01-02T08:51:13,2420,42.8014,5.9826,0.92,0.033,3.431,155.0,151.0,152.0,11.8,1504.7,272.1,-0.8,0.9,2485.177,13.28,776.0,0.921,88.0
2024-01-02T08:54:13,2420,42.8014,5.9826,0.955,0.026,3.346,155.0,151.0,152.0,11.8,1504.7,272.1,-0.8,0.9,2485.458,13.28,750.0,0.955,88.4
2024-01-02T08:57:12,2420,42.8014,5.9826,0.871,-0.217,3.042,155.0,152.0,152.0,11.8,1504.7,272.0,-0.8,0.9,2485.426,13.28,772.0,0.898,104.0
2024-01-02T09:03:13,2420,42.8014,5.9826,1.001,0.03,3.279,155.0,151.0,152.0,11.8,1504.7,272.0,-0.8,0.9,2485.611,13.28,771.0,1.001,88.3
2024-01-02T09:06:13,2420,42.8014,5.9826,0.991,0.003,3.364,155.0,151.0,152.0,11.8,1504.7,272.0,-0.8,0.9,2485.486,13.28,767.0,0.991,89.8